TimeEST,TemperatureF,Dew PointF,Humidity,Sea Level PressureIn,VisibilityMPH,Wind Direction,Wind SpeedMPH,Gust SpeedMPH,PrecipitationIn,Events,Conditions,WindDirDegrees,DateUTC
12:53 AM,39.0,33.1,79,30.28,7.0,North,11.5,-,0.01,Rain,Light Rain,10,2012-11-27 05:53:00
1:28 AM,37.4,33.8,87,30.26,5.0,NNE,6.9,-,0.02,Rain,Light Rain,20,2012-11-27 06:28:00
1:53 AM,37.0,33.1,86,30.27,6.0,North,6.9,-,0.02,Rain,Light Rain,10,2012-11-27 06:53:00
2:12 AM,35.6,33.8,93,30.27,5.0,North,4.6,-,0.00,Rain,Light Rain,10,2012-11-27 07:12:00
2:45 AM,35.6,33.8,93,30.27,5.0,NE,4.6,-,0.00,Rain,Light Rain,40,2012-11-27 07:45:00
2:53 AM,36.0,33.1,89,30.27,5.0,ENE,4.6,-,0.00,Rain,Light Rain,70,2012-11-27 07:53:00
3:53 AM,36.0,34.0,93,30.28,4.0,Calm,Calm,-,0.00,,Overcast,0,2012-11-27 08:53:00
4:53 AM,35.1,30.0,82,30.28,9.0,North,8.1,-,N/A,,Overcast,360,2012-11-27 09:53:00
5:53 AM,34.0,28.0,79,30.29,10.0,North,5.8,-,N/A,,Overcast,360,2012-11-27 10:53:00
6:22 AM,33.8,28.4,81,30.29,10.0,North,9.2,-,N/A,,Mostly Cloudy,350,2012-11-27 11:22:00
6:53 AM,33.1,27.0,78,30.32,10.0,North,8.1,-,N/A,,Clear,360,2012-11-27 11:53:00
7:53 AM,32.0,26.1,79,30.34,10.0,North,6.9,-,N/A,,Clear,10,2012-11-27 12:53:00
8:53 AM,34.0,26.1,73,30.37,10.0,North,8.1,-,N/A,,Clear,350,2012-11-27 13:53:00
9:53 AM,36.0,27.0,70,30.37,10.0,North,8.1,-,N/A,,Clear,350,2012-11-27 14:53:00
10:53 AM,39.0,26.1,60,30.38,10.0,North,9.2,-,N/A,,Clear,10,2012-11-27 15:53:00
11:53 AM,39.0,27.0,62,30.38,10.0,NE,5.8,-,N/A,,Mostly Cloudy,40,2012-11-27 16:53:00
12:53 PM,42.1,27.0,55,30.35,10.0,NW,4.6,-,N/A,,Mostly Cloudy,320,2012-11-27 17:53:00
1:53 PM,41.0,26.1,55,30.33,10.0,Variable,4.6,-,N/A,,Scattered Clouds,0,2012-11-27 18:53:00
2:53 PM,42.1,25.0,51,30.32,10.0,North,5.8,-,N/A,,Partly Cloudy,350,2012-11-27 19:53:00
3:53 PM,41.0,23.0,49,30.31,10.0,North,5.8,-,N/A,,Clear,360,2012-11-27 20:53:00
4:53 PM,37.9,24.1,57,30.33,10.0,North,6.9,-,N/A,,Clear,350,2012-11-27 21:53:00
5:53 PM,34.0,23.0,64,30.35,10.0,North,5.8,-,N/A,,Clear,360,2012-11-27 22:53:00
6:53 PM,33.1,21.9,64,30.36,10.0,NE,3.5,-,N/A,,Clear,40,2012-11-27 23:53:00
7:53 PM,30.0,24.1,79,30.37,9.0,Calm,Calm,-,N/A,,Clear,0,2012-11-28 00:53:00
8:53 PM,28.9,24.1,82,30.37,8.0,Calm,Calm,-,N/A,,Clear,0,2012-11-28 01:53:00
9:53 PM,28.0,23.0,81,30.37,8.0,Calm,Calm,-,N/A,,Clear,0,2012-11-28 02:53:00
10:53 PM,26.1,23.0,88,30.37,5.0,Calm,Calm,-,N/A,,Clear,0,2012-11-28 03:53:00
11:53 PM,25.0,21.9,88,30.36,5.0,Calm,Calm,-,N/A,,Clear,0,2012-11-28 04:53:00